633  
ASCA42 TJSJ 212210  
RWRPR  
PUERTO RICO/U.S. VIRGIN ISLANDS HOURLY WEATHER ROUNDUP  
NATIONAL WEATHER SERVICE SAN JUAN PR  
600 PM AST WED AUG 21 2019  
 
PRZ001>002-007>008-010-212300-  
PUERTO RICO  
 
CITY SKY/WX TMP DP RH WIND PRES REMARKS
 
SAN JUAN LMM MOSUNNY 84 73 70 E16 29.98R HX 91  
AGUADILLA PTSUNNY 77 75 94 CALM 29.99R  
CEIBA CLEAR 84 73 70 E10 29.99S HX 91  

 
 
VIZ001>002-212300-  
U.S. VIRGIN ISLANDS  
 
CITY SKY/WX TMP DP RH WIND PRES REMARKS
 
CHARLOTTE AMA PTCLDY 88 70 55 E12 29.97R HX 92  
CHRISTIANSTED PTCLDY 84 72 65 E10 29.97  

 
 
HOURLY WEATHER ROUNDUP FOR THE NEWS MEDIA  
 
CITY SKY/WX TMP DP RH WIND PRES REMARKS
 
ORLANDO FAIR 91 71 51 E13 30.04S HX 97  
NEW YORK PTSUNNY 81 75 82 S20 29.85F  
NEWARK TSTM 76 70 82 S3 29.85R  
CHICAGO CLOUDY 76 71 85 VRB3 29.92F  
HARTFORD PTSUNNY 79 72 79 S16 29.88F  
BOSTON PTSUNNY 78 73 84 S10 29.85F  
DALLAS MOSUNNY 99 67 35 S7 29.91F HX 103  
PHILADELPHIA TSTM 86 71 60 W7G23 29.86S HX 91  
LOS ANGELES SUNNY 79 61 53 SW13 29.81F  
WASHINGTON DC PTSUNNY 84 71 65 NE7 29.88R  
 
CLICK HERE TO GO TO PREVIOUS BULLETINS.

The Nexlab PR Page Main Text Page